[[{"header":{"parameterUnit":"m.s-1","parameterCategory":1,"la1":30.2992,"la2":30.254,"lo1":-89.0895,"lo2":-89.0443,"dy":0.0025,"dx":0.0025,"nx":19,"ny":19,"refTime":"2026-05-21T03:00:00:Z","depth":0,"parameterNumber":2,"parameterNumberName":"U-component_of_WINDS"},"data":[0,0,0,-0.396,-0.3967,-0.4296,-0.4297,-0.4699,-0.4702,0,0,0,0,0,0,0,0,0,0,0,-0.384,-0.3842,-0.396,-0.3967,-0.4295,-0.4297,-0.4698,-0.4702,0,0,0,0,0,0,0,0,0,0,0,-0.384,-0.3842,-0.3844,-0.3968,-0.4295,-0.4297,-0.4697,-0.4459,0,0,0,0,0,0,0,0,0,0,-0.4144,-0.4009,-0.3841,-0.3844,-0.397,-0.4295,-0.4298,-0.4448,-0.4474,-0.4538,0,-0.458,0,-0.4646,-0.4727,-0.4728,0,0,0,-0.3987,-0.3987,-0.4094,-0.3844,-0.3973,-0.4294,-0.4153,-0.4463,-0.4492,-0.4572,-0.4586,-0.4602,-0.4653,-0.4729,-0.4731,-0.5012,-0.5012,0,0,-0.3969,-0.389,-0.4074,-0.4112,-0.4048,-0.4142,-0.4163,-0.4481,-0.4495,-0.4587,-0.4612,-0.4659,-0.4731,-0.4734,-0.5012,-0.5012,0,0,0,-0.3903,-0.3877,-0.3977,-0.4094,-0.4154,-0.4151,-0.4175,-0.4481,-0.4519,-0.4616,-0.4664,-0.4734,-0.4738,-0.5011,-0.5012,-0.4949,0,0,0,-0.3893,-0.3839,-0.3968,-0.3924,-0.4147,-0.4319,-0.4167,-0.4497,-0.4536,-0.4662,-0.4734,-0.4742,-0.5011,-0.5012,-0.495,-0.4934,0,0,0,-0.3827,-0.3831,-0.387,-0.3919,-0.4056,-0.4316,-0.4374,-0.4507,-0.4564,-0.4728,-0.4743,-0.5011,-0.5011,-0.4951,-0.4936,-0.4984,0,0,0,-0.3737,-0.3815,-0.3867,-0.3976,-0.4052,-0.4271,-0.4372,-0.4543,-0.4676,-0.4736,-0.5011,-0.5012,-0.4951,-0.4937,-0.4984,-0.5008,-0.501,0,0,-0.3793,-0.3819,-0.3889,-0.3945,-0.4132,-0.4228,-0.4412,-0.4614,-0.4708,-0.4908,-0.4916,-0.495,-0.4936,-0.4984,-0.5052,-0.5053,0,0,0,-0.3881,-0.393,-0.3997,-0.4114,-0.4264,-0.4394,-0.4574,-0.465,-0.4822,-0.479,-0.4983,-0.4978,-0.5009,-0.5025,-0.5026,-0.5059,-0.5015,-0.5015,-0.5015,-0.3849,-0.3956,-0.408,-0.4226,-0.4341,-0.4524,-0.463,-0.4765,-0.4847,-0.4891,-0.495,-0.4977,-0.4992,-0.4993,-0.5026,-0.4973,-0.4973,-0.4973,-0.4972,-0.3941,-0.4027,-0.4127,-0.4282,-0.4399,-0.4536,-0.4719,-0.4771,-0.4921,-0.4942,-0.4975,-0.4987,-0.499,-0.5026,-0.4969,-0.497,-0.497,-0.497,-0.4971,-0.3931,-0.3991,-0.4075,-0.4255,-0.4386,-0.4538,-0.4673,-0.4778,-0.4879,-0.4912,-0.4987,-0.4989,-0.5004,-0.494,-0.494,-0.494,-0.4941,-0.4941,-0.4941,-0.3887,-0.3984,-0.4079,-0.4243,-0.4332,-0.4465,-0.4652,-0.4747,-0.488,-0.4947,-0.4948,-0.5026,-0.4969,-0.4952,-0.4943,-0.4942,-0.4942,-0.4942,-0.4942,-0.3938,-0.3942,-0.4089,-0.4178,-0.4381,-0.4504,-0.4635,-0.482,-0.4915,-0.4979,-0.5052,-0.4991,-0.503,-0.503,-0.5017,-0.5025,-0.5025,-0.5025,-0.5025,-0.3929,-0.3956,-0.413,-0.4265,-0.4411,-0.4543,-0.4716,-0.4864,-0.5021,-0.5088,-0.5103,-0.5095,-0.509,-0.5132,-0.513,-0.5119,-0.5154,-0.5154,-0.5154,-0.3967,-0.4013,-0.4133,-0.4275,-0.4443,-0.4587,-0.4753,-0.4914,-0.5094,-0.5162,-0.5144,-0.5139,-0.5127,-0.5117,-0.5182,-0.5177,-0.5159,0,0]},{"header":{"parameterUnit":"m.s-1","parameterCategory":1,"la1":30.2992,"la2":30.254,"lo1":-89.0895,"lo2":-89.0443,"dy":0.0025,"dx":0.0025,"nx":19,"ny":19,"refTime":"2026-05-21T03:00:00:Z","depth":0,"parameterNumber":3,"parameterNumberName":"V-component_of_WINDS"},"data":[0,0,0,2.6175,2.6177,2.626,2.6261,2.637,2.6371,0,0,0,0,0,0,0,0,0,0,0,2.6153,2.6154,2.6175,2.6177,2.626,2.6261,2.637,2.6371,0,0,0,0,0,0,0,0,0,0,0,2.6152,2.6153,2.6154,2.6178,2.626,2.6261,2.6369,2.6306,0,0,0,0,0,0,0,0,0,0,2.6224,2.6206,2.6153,2.6155,2.6178,2.626,2.6261,2.6303,2.631,2.6334,0,2.6356,0,2.6365,2.6378,2.6379,0,0,0,2.6176,2.62,2.622,2.6155,2.6179,2.626,2.6222,2.6306,2.6315,2.6343,2.6357,2.6361,2.6367,2.6379,2.638,2.6526,2.6526,0,0,2.6171,2.6169,2.6215,2.6226,2.6213,2.622,2.6225,2.6311,2.6327,2.6358,2.6364,2.6369,2.638,2.6381,2.6525,2.6526,0,0,0,2.6159,2.6166,2.6184,2.6221,2.6236,2.6222,2.6228,2.6323,2.6329,2.6365,2.637,2.6381,2.6382,2.6524,2.6525,2.6562,0,0,0,2.6156,2.6159,2.6182,2.6182,2.6235,2.6281,2.6238,2.6323,2.6333,2.637,2.6381,2.6383,2.6523,2.6525,2.6559,2.6581,0,0,0,2.6147,2.6158,2.617,2.6181,2.6217,2.6279,2.629,2.6325,2.6336,2.6379,2.6383,2.6523,2.6524,2.6557,2.6577,2.662,0,0,0,2.6136,2.6201,2.6171,2.6246,2.6216,2.6301,2.629,2.6353,2.6394,2.6381,2.6523,2.6525,2.6556,2.6574,2.6617,2.6658,2.6674,0,0,2.6217,2.6211,2.6255,2.623,2.632,2.6288,2.6384,2.6423,2.6428,2.6493,2.6496,2.656,2.6576,2.662,2.6761,2.6774,0,0,0,2.628,2.6312,2.6336,2.6376,2.6407,2.6437,2.6461,2.6476,2.6531,2.6461,2.6587,2.6596,2.6622,2.6641,2.6652,2.6675,2.6533,2.6533,2.6533,2.6393,2.6397,2.6471,2.6485,2.6523,2.6548,2.658,2.6604,2.6596,2.6625,2.6645,2.6731,2.6754,2.6762,2.6786,2.6665,2.6665,2.6665,2.6665,2.6515,2.6562,2.6549,2.6617,2.662,2.6677,2.6703,2.6696,2.6749,2.6716,2.6738,2.6704,2.6776,2.6797,2.6668,2.6668,2.6667,2.6667,2.6667,2.6591,2.6615,2.6631,2.6689,2.6733,2.6744,2.6796,2.6797,2.6797,2.682,2.6842,2.6842,2.6843,2.683,2.683,2.683,2.6831,2.6831,2.6831,2.6666,2.6683,2.6727,2.6766,2.6792,2.6826,2.6851,2.6876,2.6905,2.6901,2.6901,2.6892,2.6781,2.6755,2.6836,2.6835,2.6834,2.6834,2.6833,2.6792,2.6763,2.6832,2.6858,2.6904,2.6948,2.6947,2.6999,2.702,2.7046,2.7031,2.6948,2.6942,2.6933,2.6912,2.7028,2.7028,2.7028,2.7028,2.6859,2.6855,2.6926,2.6967,2.7007,2.7014,2.7092,2.7112,2.7128,2.7141,2.7124,2.7094,2.7085,2.7085,2.7073,2.7053,2.7203,2.7203,2.7203,2.6938,2.6938,2.7005,2.702,2.7056,2.7087,2.7161,2.7209,2.7221,2.721,2.7152,2.7145,2.7097,2.7081,2.7071,2.7053,2.7016,0,0]}]]